Location: Góry Miechowskie
(50.3599°N, 20.1803°E)
Time: 15:41:23
(UTC+00:00)

A-11 Canister half - Pass Details

Date: 18 September 2024
Orbit: 1515 x 1684 km, 47.2° (Epoch: 07 October)

Event Time Altitude Azimuth Distance (km) Brightness Sun altitude
Rises 23:32:29 0° 287° (WNW) 4,663 11.5 -36.7°
Enters shadow 23:34:57 - 279° (W) 4,010 11.1 -36.6°
Reaches altitude 10° 23:36:21 10° 273° (W) 3,677 - -36.5°
Maximum altitude 23:42:52 22° 228° (SW) 2,844 - -36.2°
Drops below altitude 10° 23:49:27 10° 182° (S) 3,704 - -35.8°
Sets 23:53:24 0° 168° (SSE) 4,706 - -35.5°
